Info: BRI GANGGUAN...BCA BNI CIMB NIAGA MANDIRI PERMATA ONLINE... SEKARANG TELAH HADIR TOURNAMEN DI BROWSER HP ANDA. DAFTAR DAN MENANGKAN HADIAH JUTAAN RUPIAHNYA!!HARAP PERHATIKAN MENU DEPOSIT SEBELUM MELAKUKAN TRANSFER - Akses selalu melalui website resmi kami http://poker88.city
REGISTER JACKPOT DEPOSIT REFERRAL DOWNLOAD PROMOSI CONTACT VIP
JACKPOT



   

Jackpot Winner Domino

Jackpot hanya dapat di beli di awal sebelum periode tersebut berjalan dan jika berhasil maka anda dapat melihat di sisi kiri bawah atau kiri atas akan terdapat notifikasi bahwa jackpot anda berhasil di beli.

Jika anda membeli jackpot di tengah permainan maka pembelian jackpot akan berlaku untuk periode selanjutnya.

Ikutilah global jackpot yang tersedia di system kami, dengan system jackpot terbaru dan pertama di indonesia, anda dapat membeli jackpot dengan harga 100 rupiah saja dan menangkan hadiahnya hingga puluhan juta rupiah.

Jackpot bukanlah suatu keharusan untuk dibeli, namun kami memberikan suatu fitur tambahan untuk member tercinta dari www.pk88asia.cc.

Terdapat tiga pilihan harga jackpot yang bisa anda beli yaitu :100,500 dan 1000 rupiah.

Hadiah dari Multi jackpot system www.pk88asia.cc

  1. Murni Kecil x 50 harga jackpot yang anda beli.
      (contoH:anda membeli 1000 maka:1000 X 50 = 50.000)
  2. Murni Besar x 50 harga jackpot yang anda beli
      (contoH:anda membeli 1000 maka:1000 X 50 = 50.000)
  3. BALAK x 150 harga jackpot yang anda beli
      (contoH:anda membeli 1000 maka:1000 X 150 = 150.000)
  4. ENAM DEWA x 6666 harga jackpot yang anda beli
      (contoH:anda membeli 1000 maka:1000 X 6666 = 6.666.000)

Demikian adalah penjelasan dari Multi Jackpot www.pk88asia.cc terima kasih dan selamat bermain salam hoki dari kami

Note: Untuk mendapatkan jackpot di satu periode, pemain harus menyelesaikan permainan di periode tersebut, minimal 2 pemain. Jika semua pemain 'fold' jackpot tidak akan diturunkan.


Jackpot Winner

TOP ENAM DEWA
No. Tanggal Nama Price Win
1 25/04 16:24 JOIN_535 murni enam 3,333,000
2 25/04 14:11 XDIKA murni enam 6,666,000
3 25/04 14:02 S4IN murni enam 6,666,000
4 25/04 13:57 BAYURAFA9 murni enam 3,333,000
5 25/04 13:38 EBELITAAA murni enam 6,666,000
TOP BALAK
No. Tanggal Nama Price Win
1 25/04 17:29 VIKINKG30 balak 75,000
2 25/04 17:29 X6X6X6 balak 150,000
3 25/04 17:26 C1PLUK balak 15,000
4 25/04 17:25 DIKA_DITAM balak 150,000
5 25/04 17:25 VHY86 balak 150,000
LATEST JACKPOT
No. Tanggal Nama Price Win
1 25/04 17:31 KONDRO81 murni besar 50,000
2 25/04 17:30 QIU011 murni besar 25,000
3 25/04 17:30 GUS9898 murni besar 50,000
4 25/04 17:29 CHSSS murni besar 25,000
5 25/04 17:29 VIKINKG30 balak 75,000
6 25/04 17:29 X6X6X6 balak 150,000
7 25/04 17:29 BAN115 murni besar 25,000
8 25/04 17:29 ADMAN murni besar 25,000
9 25/04 17:28 FERRY199 murni besar 50,000
10 25/04 17:28 INDO14124 murni besar 50,000
11 25/04 17:27 YOYON_1812 murni kecil 50,000
12 25/04 17:27 YULIGITA99 murni kecil 50,000
13 25/04 17:27 ARIRAMBEE murni besar 5,000
14 25/04 17:26 C1PLUK balak 15,000
15 25/04 17:26 POTENG78 murni besar 25,000
16 25/04 17:25 DIKA_DITAM balak 150,000
17 25/04 17:25 LIANELBAR murni kecil 5,000
18 25/04 17:25 MTL2HR339F murni kecil 50,000
19 25/04 17:25 VHY86 balak 150,000
20 25/04 17:24 TOELI balak 150,000
21 25/04 17:24 S4KTI805 murni kecil 25,000
22 25/04 17:24 CLUTAKAN25 balak 15,000
23 25/04 17:23 WIDEX123 lucky99 50,000
24 25/04 17:23 BANDAR9 murni besar 5,000
25 25/04 17:23 MR_RPT murni kecil 25,000
26 25/04 17:22 CMD89392 murni kecil 50,000
27 25/04 17:22 NANGAL murni besar 50,000
28 25/04 17:22 ODE74 murni besar 50,000
29 25/04 17:22 PIIT77 murni kecil 5,000
30 25/04 17:22 PAMUD007 murni kecil 25,000
31 25/04 17:22 NINJA1S murni kecil 50,000
32 25/04 17:21 IONK55F1FF murni kecil 25,000
33 25/04 17:21 K1LLER9 murni besar 25,000
34 25/04 17:21 TZNA88 balak 150,000
35 25/04 17:20 SIOHOALU murni kecil 50,000
36 25/04 17:20 PLAYER99 murni kecil 5,000
37 25/04 17:20 JEKLIN77 murni kecil 50,000
38 25/04 17:20 JOKERWAHYU murni besar 5,000
39 25/04 17:20 ZULIANTO14 murni kecil 5,000
40 25/04 17:18 BABAK1234 balak 150,000
41 25/04 17:18 RUDI5975 murni besar 5,000
42 25/04 17:18 BEBEC98 murni besar 50,000
43 25/04 17:18 SAPULIDI16 balak 15,000
44 25/04 17:18 ADIJAYA123 murni kecil 25,000
45 25/04 17:17 ITF53TZHWV murni kecil 50,000
46 25/04 17:17 KESYA77 murni besar 25,000
47 25/04 17:17 ERLANG15 balak 150,000
48 25/04 17:16 S4KTI805 murni besar 25,000
49 25/04 17:16 JEFRIAN murni kecil 5,000
50 25/04 17:16 GOTRIE murni kecil 50,000